Simultaneous Nadir Overpasses (SNOs) Predictions

Prediction of SNOs between METOP-A and TERRA Satellite Orbit:

Table of predicted SNOs for the next 14.0 days since TLE Epoch: 11/10/2013
Index Date (METOP-A) Time (METOP-A) Lat,Lon (METOP-A) SZA (METOP-A ) Date (TERRA) Time (TERRA) Lat,Lon (TERRA) SZA (TERRA ) Distance(km) Time Diff (sec)
1 11/11/2013 16:14:45 -81.31, 163.41 78.02 11/11/2013 16:15:25 -81.31, 163.49 77.99 1.58 40
2 11/11/2013 17:05:24 81.32, -28.68 102.07 11/11/2013 17:04:51 81.31, -28.77 102.04 1.66 33
3 11/14/2013 11:49:06 -81.31,-130.17 77.29 11/14/2013 11:49:40 -81.31,-130.06 77.26 1.83 34
4 11/14/2013 12:39:44 81.32, 37.71 102.80 11/14/2013 12:39:05 81.31, 37.65 102.76 1.37 39
5 11/17/2013 07:23:25 -81.32, -63.41 76.56 11/17/2013 07:23:53 -81.31, -63.51 76.56 1.73 28
6 11
